Flag Weather past 2 weeks in Amarillo, Texas, U.S.A.

Now
34 °F

Clear.


Feels Like: 27 °F
Forecast: 31 / 63 °F
Wind: 8 mph from East

Location: Amarillo International Airport

Current Time: Nov 26, 2014 at 11:51:24 PM

Latest Report: Nov 26, 2014 at 10:53 PM


Visibility: 10 mi

Pressure: 30.40 "Hg

Humidity: 61%

Dew point: 22 °F

Location of AmarilloLocation

Historic Weather in Amarillo — Graph

°F

Amarillo temperature yesterday

Maximum temperature yesterday: 53 °F (at 2:53 PM)
Minimum temperature yesterday: 26 °F (at 6:53 AM)
Average temperature yesterday: 40 °F

Past Weeks' High & Low Weather Summary

 TemperatureHumidityPressure
High70 °F (Nov 22, 2:53 PM)93% (Nov 21, 2:53 AM)30.67 "Hg (Nov 21, 2:53 AM)
Low10 °F (Nov 17, 7:53 AM)15% (Nov 22, 3:53 PM)29.36 "Hg (Nov 23, 2:53 AM)
Average35 °F59%30.13 "Hg
* Reported Nov 11 9:53 PM — Nov 26 9:53 PM, Amarillo, Weather by CustomWeather, © 2014

Note: Actual official high and low records may vary slightly from our data, if they occured in-between our weather recording intervals... More about our weather records

Advertising

Amarillo weather history for previous 24 hours

 ConditionsComfort  
Time TempWeatherWind HumidityBarometerVisibility
9:53 PM
Nov 26
37 °FClear.8 mph57%30.40 "Hg10 mi
8:53 PM38 °FClear.9 mph55%30.39 "Hg10 mi
7:53 PM40 °FClear.6 mph51%30.37 "Hg10 mi
6:53 PM38 °FClear.5 mph55%30.34 "Hg10 mi
5:53 PM44 °FClear.3 mph43%30.32 "Hg10 mi
4:53 PM49 °FSunny.7 mph36%30.29 "Hg10 mi
3:53 PM51 °FSunny.6 mph33%30.25 "Hg10 mi
2:53 PM51 °FSunny.9 mph33%30.24 "Hg10 mi
1:53 PM50 °FSunny.5 mph33%30.23 "Hg10 mi
12:53 PM49 °FSunny.12 mph36%30.24 "Hg10 mi
11:53 AM47 °FSunny.13 mph42%30.27 "Hg10 mi
10:53 AM44 °FSunny.12 mph51%30.29 "Hg10 mi
9:53 AM39 °FSunny.14 mph65%30.29 "Hg10 mi
8:53 AM36 °FSunny.15 mph75%30.26 "Hg10 mi
7:53 AM33 °FSunny.10 mph85%30.22 "Hg10 mi
6:53 AM32 °FClear.8 mph85%30.22 "Hg10 mi
5:53 AM32 °FClear.10 mph75%30.18 "Hg10 mi
4:53 AM35 °FClear.13 mph64%30.11 "Hg10 mi
3:53 AM40 °FClear.16 mph45%30.05 "Hg10 mi
2:53 AM40 °FClear.9 mph47%30.01 "Hg10 mi
1:53 AM42 °FClear.14 mph41%29.98 "Hg10 mi
12:53 AM43 °FClear.14 mph38%29.97 "Hg10 mi
11:53 PM
Nov 25
41 °FClear.10 mph41%29.98 "Hg10 mi
Weather by CustomWeather, © 2014

See weather overviewHow to use our weather pages